Location: Jonesport
(44.5330°N, 67.5990°W)
Time: 02:10:07
(UTC-04:00)

Iridium 35 - Visible Passes

Search period start: 18 June 2018 00:00
Search period end: 28 June 2018 00:00
Orbit: 761 x 765 km, 86.4° (Epoch: 17 June)

Date Brightness Start Highest point End Pass type
(mag) Time Alt. Az. Time Alt. Az. Time Alt. Az.
20 Jun 7.9 03:48:33 10° NE 03:51:23 15° ENE 03:54:12 10° ESE visible
23 Jun 7.8 03:35:15 10° NE 03:38:21 16° ENE 03:41:26 10° ESE visible
25 Jun 6.9 03:58:52 10° NNE 04:03:29 32° E 04:08:04 10° SE visible
26 Jun 7.7 03:21:59 10° NNE 03:25:19 17° ENE 03:28:37 10° ESE visible
